This is the latest recevied weather packets stored in our database for station/object KC3UTO. If no packets are shown the sender has not sent any weather packets the latest 10 day(s).
| Time | Temp. | Humidity | Pressure | Rain* | Wind** | Luminosity | Snow |
|---|---|---|---|---|---|---|---|
| 1777682002 | 14.44° C | 46% | 1010.6 hPa | 0 mm | - | 0 W/m² | - |
| 1777681699 | 14.44° C | 46% | 1010.4 hPa | 0 mm | - | 0 W/m² | - |
| 1777681396 | 15° C | 46% | 1010 hPa | 0 mm | - | 0 W/m² | - |
| 1777681093 | 15° C | 46% | 1010.3 hPa | 0 mm | - | 0 W/m² | - |
| 1777680791 | 15° C | 45% | 1010.1 hPa | 0 mm | - | 0 W/m² | - |
| 1777680488 | 15° C | 45% | 1010.2 hPa | 0 mm | - | 0 W/m² | - |
| 1777680186 | 15° C | 44% | 1010.2 hPa | 0 mm | - | 1 W/m² | - |
| 1777679882 | 15° C | 44% | 1010.2 hPa | 0 mm | - | 2 W/m² | - |
| 1777679578 | 15° C | 44% | 1010 hPa | 0 mm | - | 4 W/m² | - |
| 1777679273 | 15° C | 44% | 1010 hPa | 0 mm | - | 6 W/m² | - |
| 1777678971 | 15.56° C | 43% | 1009.9 hPa | 0 mm | - | 8 W/m² | - |
| 1777678669 | 15.56° C | 43% | 1010 hPa | 0 mm | - | 10 W/m² | - |
| 1777678366 | 15.56° C | 42% | 1009.9 hPa | 0 mm | - | 13 W/m² | - |
| 1777678061 | 15.56° C | 41% | 1009.7 hPa | 0 mm | - | 13 W/m² | - |
| 1777677759 | 15.56° C | 41% | 1009.7 hPa | 0 mm | - | 18 W/m² | - |
| 1777677457 | 15.56° C | 40% | 1009.6 hPa | 0 mm | - | 25 W/m² | - |
| 1777677155 | 16.11° C | 39% | 1009.6 hPa | 0 mm | - | 36 W/m² | - |
| 1777676853 | 16.11° C | 37% | 1009.4 hPa | 0 mm | - | 29 W/m² | - |
| 1777676551 | 16.67° C | 38% | 1009.6 hPa | 0 mm | - | 37 W/m² | - |
| 1777676249 | 16.67° C | 37% | 1009.4 hPa | 0 mm | - | 44 W/m² | - |
| 1777675946 | 16.67° C | 36% | 1009.6 hPa | 0 mm | - | 63 W/m² | - |
| 1777675641 | 16.67° C | 39% | 1009.6 hPa | 0 mm | - | 60 W/m² | - |
| 1777675339 | 16.67° C | 37% | 1009.6 hPa | 0 mm | - | 61 W/m² | - |
| 1777675035 | 16.67° C | 38% | 1009.4 hPa | 0 mm | - | 91 W/m² | - |
| 1777674732 | 16.67° C | 37% | 1009.3 hPa | 0 mm | - | 97 W/m² | - |
* Rain latest hour (hover to see other rain measurements)
** Current wind speed in m/s (hover to see current wind gust speed)